Weather History for Spokane Fairchild, WA

Change the Weather History Date:

Monday, November 19, 2012

  Actual Average Record
Temperature  
Mean Temperature 42 °F -  
Max Temperature 46 °F 39 °F 55 °F (2003)
Min Temperature 39 °F 27 °F 14 °F (2000)
Degree Days  
Heating Degree Days 22    
Moisture  
Dew Point 44 °F    
Average Humidity 100    
Maximum Humidity 100    
Minimum Humidity 99    
Precipitation  
Precipitation 0.80 in - - ()
Sea Level Pressure  
Sea Level Pressure 29.74 in    
Wind  
Wind Speed 16 mph (SSE)    
Max Wind Speed 25 mph    
Max Gust Speed 37 mph    
Visibility 10 miles    
Events Rain    
Averages and records for this station are not official NWS values.
T = Trace of Precipitation, MM = Missing Value Source: NWS Daily Summary

Daily Weather History Graph

Daily Weather History Graph

Search for Another Location

Airport:

Trip Planner

Search our weather history database for the weather conditions in past years. The results will help you decide how hot, cold, wet, or windy it might be!

Date:

Astronomy

Nov. 19, 2012 Rise Set
Actual Time 7:02 AM PST 4:09 PM PST
Civil Twilight 6:28 AM PST 4:43 PM PST
Nautical Twilight 5:50 AM PST 5:21 PM PST
Astronomical Twilight 5:14 AM PST 5:57 PM PST
Moon 11:57 AM PST (11/19) 10:53 PM PST (11/19)
Length of Visible Light 10h 14m
Length of Day
9h 06m
Waxing Crescent, 42% of the Moon is Illuminated
Nov 19
Waxing Crescent
Nov 20
First Quarter
Nov 28
Full
Dec 6
Last Quarter
Dec 13
New

Hourly Weather History & Observations

Time (PST) Temp. Windchill Dew Point Humidity Pressure Visibility Wind Dir Wind Speed Gust Speed Precip Events Conditions
12:07 AM 39.2 °F 32.5 °F 39.2 °F 100% 29.81 in 10.0 mi SE 10.4 mph - N/A   Overcast
12:20 AM 39.2 °F 32.5 °F 39.2 °F 100% 29.81 in 10.0 mi SE 10.4 mph - N/A Rain Light Rain
12:50 AM 39.2 °F 30.8 °F 39.2 °F 100% 29.78 in 10.0 mi SE 15.0 mph - N/A Rain Light Rain
12:58 AM 39.4 °F 30.7 °F 39.4 °F 100% 29.82 in 10.0 mi SE 16.1 mph - 0.00 in Rain Light Rain
1:58 AM 39.0 °F 32.3 °F 39.0 °F 100% 29.84 in 10.0 mi SSE 10.4 mph 21.9 mph 0.02 in Rain Light Rain
2:18 AM 39.2 °F 32.0 °F 39.2 °F 100% 29.80 in 9.0 mi SSE 11.5 mph 20.7 mph N/A Rain Rain
2:38 AM 39.2 °F 31.2 °F 39.2 °F 100% 29.81 in 10.0 mi South 13.8 mph - N/A Rain Rain
2:58 AM 39.7 °F 32.7 °F 39.7 °F 100% 29.86 in 10.0 mi South 11.5 mph - 0.10 in Rain Light Rain
3:58 AM 40.1 °F 33.2 °F 40.1 °F 100% 29.83 in 9.0 mi SSE 11.5 mph - 0.04 in Rain Light Rain
4:03 AM 41.0 °F 33.5 °F 41.0 °F 100% 29.79 in 9.0 mi SSE 13.8 mph - N/A Rain Light Rain
4:19 AM 41.0 °F 33.5 °F 41.0 °F 100% 29.79 in 10.0 mi SSE 13.8 mph - N/A Rain Light Rain
4:34 AM 41.0 °F 32.2 °F 41.0 °F 100% 29.78 in 10.0 mi SE 18.4 mph 23.0 mph N/A Rain Light Rain
4:39 AM 41.0 °F 31.6 °F 41.0 °F 100% 29.79 in 10.0 mi SE 20.7 mph 24.2 mph N/A Rain Light Rain
4:58 AM 40.6 °F 31.4 °F 40.6 °F 100% 29.82 in 10.0 mi SE 19.6 mph - 0.02 in Rain Light Rain
5:28 AM 41.0 °F 32.2 °F 41.0 °F 100% 29.78 in 9.0 mi SSE 18.4 mph 24.2 mph N/A Rain Light Rain
5:38 AM 41.0 °F 31.9 °F 41.0 °F 100% 29.78 in 10.0 mi SSE 19.6 mph - N/A Rain Light Rain
5:53 AM 41.0 °F 32.2 °F 41.0 °F 100% 29.77 in 10.0 mi SE 18.4 mph 23.0 mph N/A Rain Light Rain
5:58 AM 40.6 °F 32.0 °F 40.6 °F 100% 29.81 in 10.0 mi SSE 17.3 mph 23.0 mph 0.03 in Rain Light Rain
6:55 AM 40.3 °F 30.7 °F 40.3 °F 100% 29.82 in 10.0 mi SSE 20.7 mph 27.6 mph 0.06 in Rain Light Rain
7:25 AM 41.0 °F 31.4 °F 41.0 °F 100% 29.77 in 8.0 mi SSE 21.9 mph 28.8 mph N/A Rain Light Rain
7:55 AM 39.2 °F 29.0 °F 39.2 °F 100% 29.77 in 10.0 mi SE 21.9 mph 25.3 mph N/A Rain Light Rain
8:55 AM 41.4 °F 32.1 °F 41.4 °F 100% 29.80 in 10.0 mi SE 20.7 mph 27.6 mph 0.02 in Rain Light Rain
9:58 AM 42.8 °F 34.8 °F 42.8 °F 100% 29.80 in 10.0 mi SSE 17.3 mph 23.0 mph 0.02 in Rain Light Rain
10:55 AM 44.6 °F 36.1 °F 44.6 °F 100% 29.73 in 10.0 mi SSE 21.9 mph 31.1 mph N/A Rain Light Rain
11:55 AM 44.6 °F 36.9 °F 44.6 °F 100% 29.71 in 10.0 mi SSE 18.4 mph 29.9 mph N/A Rain Light Rain
12:01 PM 44.6 °F 35.9 °F 44.6 °F 100% 29.71 in 10.0 mi SSE 23.0 mph 29.9 mph N/A Rain Light Rain
12:02 PM 44.6 °F 36.4 °F 44.6 °F 100% 29.71 in 10.0 mi SSE 20.7 mph 29.9 mph N/A   Mostly Cloudy
12:03 PM 44.6 °F 36.6 °F 44.6 °F 100% 29.71 in 10.0 mi SSE 19.6 mph 26.5 mph N/A   Mostly Cloudy
12:58 PM 46.4 °F 38.5 °F 46.4 °F 100% 29.72 in 10.0 mi SSE 21.9 mph 28.8 mph 0.00 in   Light Drizzle
1:00 PM 46.4 °F 39.2 °F 46.4 °F 100% 29.68 in 10.0 mi SSE 18.4 mph 28.8 mph N/A   Scattered Clouds
1:01 PM 46.4 °F 39.2 °F 46.4 °F 100% 29.68 in 10.0 mi SSE 18.4 mph 28.8 mph N/A Rain Light Rain
1:05 PM 46.4 °F 39.2 °F 46.4 °F 100% 29.68 in 10.0 mi SSE 18.4 mph 26.5 mph N/A   Scattered Clouds
1:18 PM 46.4 °F 39.0 °F 46.4 °F 100% 29.67 in 10.0 mi SSE 19.6 mph 29.9 mph N/A Rain Light Rain
1:58 PM 46.9 °F - 46.9 °F 100% 29.70 in 10.0 mi SSE 20.7 mph 28.8 mph 0.00 in Rain Light Rain
2:58 PM 46.0 °F 37.8 °F 46.0 °F 100% 29.69 in 10.0 mi SSE 23.0 mph 31.1 mph 0.08 in Rain Light Rain
3:58 PM 45.7 °F 36.9 °F 45.7 °F 100% 29.69 in 10.0 mi SSE 25.3 mph 32.2 mph 0.05 in Rain Light Rain
4:48 PM 46.4 °F 39.0 °F 46.4 °F 100% 29.64 in 10.0 mi SSE 19.6 mph 31.1 mph N/A Rain Light Rain
4:58 PM 46.0 °F 38.0 °F 46.0 °F 100% 29.63 in 10.0 mi SSE 21.9 mph 36.8 mph 0.03 in Rain Light Rain
5:06 PM 46.4 °F 38.5 °F 46.4 °F 100% 29.64 in 10.0 mi SSE 21.9 mph 29.9 mph N/A Rain Light Rain
5:07 PM 46.4 °F 38.5 °F 46.4 °F 100% 29.64 in 10.0 mi SSE 21.9 mph 29.9 mph N/A Rain Light Rain
5:38 PM 46.4 °F 38.5 °F 46.4 °F 100% 29.65 in 10.0 mi SSE 21.9 mph 31.1 mph N/A Rain Light Rain
5:58 PM 46.4 °F 40.1 °F 46.4 °F 100% 29.65 in 10.0 mi South 15.0 mph 29.9 mph 0.01 in Rain Light Rain
6:58 PM 46.6 °F - 46.6 °F 100% 29.67 in 10.0 mi South 15.0 mph 25.3 mph 0.00 in Rain Light Rain
7:58 PM 45.5 °F 39.9 °F 45.5 °F 100% 29.70 in 10.0 mi South 11.5 mph - 0.02 in Rain Light Rain
8:13 PM 46.4 °F 41.9 °F 46.4 °F 100% 29.70 in 10.0 mi South 9.2 mph - N/A Rain Light Rain
8:18 PM 46.4 °F 41.1 °F 46.4 °F 100% 29.71 in 10.0 mi South 11.5 mph - N/A Rain Light Rain
8:43 PM 46.4 °F 41.1 °F 46.4 °F 100% 29.71 in 10.0 mi South 11.5 mph - N/A Rain Light Rain
8:53 PM 46.4 °F 41.1 °F 46.4 °F 100% 29.71 in 10.0 mi South 11.5 mph - N/A Rain Light Rain
8:58 PM 46.4 °F 41.1 °F 46.4 °F 100% 29.71 in 9.0 mi South 11.5 mph - 0.06 in Rain Light Rain
9:12 PM 46.4 °F 41.9 °F 46.4 °F 100% 29.72 in 10.0 mi South 9.2 mph - N/A Rain Light Rain
9:52 PM 46.4 °F 41.5 °F 46.4 °F 100% 29.73 in 7.0 mi SSW 10.4 mph - N/A Rain Rain
9:58 PM 45.7 °F 40.6 °F 45.5 °F 99% 29.74 in 7.0 mi SSW 10.4 mph - 0.08 in Rain Rain
10:28 PM 44.6 °F 37.4 °F 44.6 °F 100% 29.74 in 7.0 mi SW 16.1 mph - N/A Rain Rain
10:48 PM 44.6 °F 37.4 °F 44.6 °F 100% 29.75 in 10.0 mi SW 16.1 mph 24.2 mph N/A Rain Light Rain
10:58 PM 45.0 °F 38.2 °F 45.0 °F 100% 29.75 in 9.0 mi SW 15.0 mph - 0.10 in Rain Rain
11:53 PM 44.6 °F 38.8 °F 44.6 °F 100% 29.75 in 10.0 mi South 11.5 mph - N/A Rain Light Rain
11:58 PM 44.4 °F 37.2 °F 44.4 °F 100% 29.76 in 10.0 mi South 16.1 mph 19.6 mph 0.06 in Rain Light Rain